Time,TemperatureF,DewpointF,PressureIn,WindDirection,WindDirectionDegrees,WindSpeedMPH,WindSpeedGustMPH,Humidity,HourlyPrecipIn,Conditions,Clouds,dailyrainin,SoftwareType,DateUTC
2013-07-12 00:01:00,68.4,65.4,29.85,NE,41,0.0,0.0,90,0.00,,---,0.00,VWS V14.01,2013-07-12 04:01:00,
2013-07-12 00:06:00,68.3,65.3,29.85,NE,41,0.0,0.0,90,0.00,,---,0.00,VWS V14.01,2013-07-12 04:06:00,
2013-07-12 00:11:00,68.3,65.3,29.84,NE,41,0.0,0.0,90,0.00,,---,0.00,VWS V14.01,2013-07-12 04:11:00,
2013-07-12 00:16:00,68.3,65.3,29.84,NE,41,0.0,0.0,90,0.00,,---,0.00,VWS V14.01,2013-07-12 04:16:00,
2013-07-12 00:21:00,68.1,65.4,29.84,NE,41,0.0,0.0,91,0.00,,---,0.00,VWS V14.01,2013-07-12 04:21:00,
2013-07-12 00:26:00,68.1,65.4,29.84,NE,41,0.0,0.0,91,0.00,,---,0.00,VWS V14.01,2013-07-12 04:26:00,
2013-07-12 00:31:00,67.9,65.2,29.84,NE,41,0.0,0.0,91,0.00,,---,0.00,VWS V14.01,2013-07-12 04:31:00,
2013-07-12 00:36:00,67.9,65.2,29.84,NE,41,0.0,0.0,91,0.00,,---,0.00,VWS V14.01,2013-07-12 04:36:00,
2013-07-12 00:41:00,67.8,65.1,29.84,NE,41,0.0,0.0,91,0.00,,---,0.00,VWS V14.01,2013-07-12 04:41:00,
2013-07-12 00:46:00,67.8,65.1,29.83,NE,41,0.0,0.0,91,0.00,,---,0.00,VWS V14.01,2013-07-12 04:46:00,
2013-07-12 00:51:00,67.8,65.1,29.83,NE,41,0.0,0.0,91,0.00,,---,0.00,VWS V14.01,2013-07-12 04:51:00,
2013-07-12 00:56:00,67.6,64.9,29.83,NE,41,0.0,0.0,91,0.00,,---,0.00,VWS V14.01,2013-07-12 04:56:00,
2013-07-12 01:01:00,67.6,64.9,29.83,NE,41,0.0,0.0,91,0.00,,---,0.00,VWS V14.01,2013-07-12 05:01:00,
2013-07-12 01:06:00,67.6,64.9,29.83,NE,41,0.0,0.0,91,0.00,,---,0.00,VWS V14.01,2013-07-12 05:06:00,
2013-07-12 01:11:00,67.6,64.9,29.83,NE,41,0.0,0.0,91,0.00,,---,0.00,VWS V14.01,2013-07-12 05:11:00,
2013-07-12 01:16:00,67.4,64.7,29.82,NE,41,0.0,0.0,91,0.00,,---,0.00,VWS V14.01,2013-07-12 05:16:00,
2013-07-12 01:21:00,67.4,64.7,29.82,NE,41,0.0,0.0,91,0.00,,---,0.00,VWS V14.01,2013-07-12 05:21:00,
2013-07-12 01:26:00,67.3,64.6,29.82,NE,41,0.0,0.0,91,0.00,,---,0.00,VWS V14.01,2013-07-12 05:26:00,
2013-07-12 01:31:00,67.3,64.6,29.82,NE,41,0.0,0.0,91,0.00,,---,0.00,VWS V14.01,2013-07-12 05:31:00,
2013-07-12 01:36:00,67.1,64.7,29.82,NE,41,0.0,0.0,92,0.00,,---,0.00,VWS V14.01,2013-07-12 05:36:00,
2013-07-12 01:41:00,67.1,64.7,29.82,NE,41,0.0,0.0,92,0.00,,---,0.00,VWS V14.01,2013-07-12 05:41:00,
2013-07-12 01:46:00,66.9,64.5,29.82,NE,41,0.0,0.0,92,0.00,,---,0.00,VWS V14.01,2013-07-12 05:46:00,
2013-07-12 01:51:00,66.9,64.5,29.82,NE,41,0.0,0.0,92,0.00,,---,0.00,VWS V14.01,2013-07-12 05:51:00,
2013-07-12 01:56:00,66.8,64.4,29.82,NE,41,0.0,0.0,92,0.00,,---,0.00,VWS V14.01,2013-07-12 05:56:00,
2013-07-12 02:01:00,66.8,64.4,29.83,NE,41,0.0,0.0,92,0.00,,---,0.00,VWS V14.01,2013-07-12 06:01:00,
2013-07-12 02:06:00,66.8,64.4,29.83,NE,41,0.0,0.0,92,0.00,,---,0.00,VWS V14.01,2013-07-12 06:06:00,
2013-07-12 02:11:00,66.6,64.2,29.83,NE,41,0.0,0.0,92,0.00,,---,0.00,VWS V14.01,2013-07-12 06:11:00,
2013-07-12 02:16:00,66.6,64.2,29.82,NE,41,0.0,0.0,92,0.00,,---,0.00,VWS V14.01,2013-07-12 06:16:00,
2013-07-12 02:21:00,66.4,64.0,29.82,NE,41,0.0,0.0,92,0.00,,---,0.00,VWS V14.01,2013-07-12 06:21:00,
2013-07-12 02:26:00,66.4,64.0,29.82,NE,41,0.0,0.0,92,0.00,,---,0.00,VWS V14.01,2013-07-12 06:26:00,
2013-07-12 02:31:00,66.3,63.9,29.83,NE,41,0.0,0.0,92,0.00,,---,0.00,VWS V14.01,2013-07-12 06:31:00,
2013-07-12 02:36:00,66.3,63.9,29.83,NE,41,0.0,0.0,92,0.00,,---,0.00,VWS V14.01,2013-07-12 06:36:00,
2013-07-12 02:41:00,66.1,63.7,29.83,NE,41,0.0,0.0,92,0.00,,---,0.00,VWS V14.01,2013-07-12 06:41:00,
2013-07-12 02:46:00,66.1,63.7,29.83,NE,41,0.0,0.0,92,0.00,,---,0.00,VWS V14.01,2013-07-12 06:46:00,
2013-07-12 02:51:00,66.0,63.6,29.83,NE,41,0.0,0.0,92,0.00,,---,0.00,VWS V14.01,2013-07-12 06:51:00,
2013-07-12 02:56:00,66.0,63.6,29.83,NE,41,0.0,0.0,92,0.00,,---,0.00,VWS V14.01,2013-07-12 06:56:00,
2013-07-12 03:01:00,66.0,63.6,29.83,NE,41,0.0,0.0,92,0.00,,---,0.00,VWS V14.01,2013-07-12 07:01:00,
2013-07-12 03:06:00,66.0,63.6,29.83,NE,41,0.0,0.0,92,0.00,,---,0.00,VWS V14.01,2013-07-12 07:06:00,
2013-07-12 03:11:00,66.0,63.6,29.83,NE,41,0.0,0.0,92,0.00,,---,0.00,VWS V14.01,2013-07-12 07:11:00,
2013-07-12 03:16:00,65.8,63.4,29.82,NE,41,0.0,0.0,92,0.00,,---,0.00,VWS V14.01,2013-07-12 07:16:00,
2013-07-12 03:21:00,65.8,63.4,29.82,NE,41,0.0,0.0,92,0.00,,---,0.00,VWS V14.01,2013-07-12 07:21:00,
2013-07-12 03:26:00,65.8,63.4,29.82,NE,41,0.0,0.0,92,0.00,,---,0.00,VWS V14.01,2013-07-12 07:26:00,
2013-07-12 03:31:00,65.6,63.5,29.82,NE,41,0.0,0.0,93,0.00,,---,0.00,VWS V14.01,2013-07-12 07:31:00,
2013-07-12 03:36:00,65.6,63.5,29.82,NE,41,0.0,0.0,93,0.00,,---,0.00,VWS V14.01,2013-07-12 07:36:00,
2013-07-12 03:41:00,65.6,63.5,29.82,NE,41,0.0,0.0,93,0.00,,---,0.00,VWS V14.01,2013-07-12 07:41:00,
2013-07-12 03:46:00,65.6,63.5,29.82,NE,41,0.0,0.0,93,0.00,,---,0.00,VWS V14.01,2013-07-12 07:46:00,
2013-07-12 03:51:00,65.5,63.4,29.82,NE,41,0.0,0.0,93,0.00,,---,0.00,VWS V14.01,2013-07-12 07:51:00,
2013-07-12 03:56:00,65.5,63.4,29.82,NE,41,0.0,0.0,93,0.00,,---,0.00,VWS V14.01,2013-07-12 07:56:00,
2013-07-12 04:01:00,65.5,63.4,29.82,NE,41,0.0,0.0,93,0.00,,---,0.00,VWS V14.01,2013-07-12 08:01:00,
2013-07-12 04:06:00,65.5,63.4,29.82,NE,41,0.0,0.0,93,0.00,,---,0.00,VWS V14.01,2013-07-12 08:06:00,
2013-07-12 04:11:00,65.3,63.2,29.82,NE,41,0.0,0.0,93,0.00,,---,0.00,VWS V14.01,2013-07-12 08:11:00,
2013-07-12 04:16:00,65.3,63.2,29.82,NE,41,0.0,0.0,93,0.00,,---,0.00,VWS V14.01,2013-07-12 08:16:00,
2013-07-12 04:21:00,65.3,63.2,29.82,NE,41,0.0,0.0,93,0.00,,---,0.00,VWS V14.01,2013-07-12 08:21:00,
2013-07-12 04:26:00,65.2,63.1,29.82,NE,41,0.0,0.0,93,0.00,,---,0.00,VWS V14.01,2013-07-12 08:26:00,
2013-07-12 04:31:00,65.2,63.1,29.81,NE,41,0.0,0.0,93,0.00,,---,0.00,VWS V14.01,2013-07-12 08:31:00,
2013-07-12 04:36:00,65.2,63.1,29.81,NE,41,0.0,0.0,93,0.00,,---,0.00,VWS V14.01,2013-07-12 08:36:00,
2013-07-12 04:41:00,65.0,62.9,29.81,NE,41,0.0,0.0,93,0.00,,---,0.00,VWS V14.01,2013-07-12 08:41:00,
2013-07-12 04:46:00,65.0,62.9,29.81,NE,41,0.0,0.0,93,0.00,,---,0.00,VWS V14.01,2013-07-12 08:46:00,
2013-07-12 04:51:00,65.0,63.2,29.81,NE,41,0.0,0.0,94,0.00,,---,0.00,VWS V14.01,2013-07-12 08:51:00,
2013-07-12 04:56:00,64.8,63.0,29.81,NE,41,0.0,0.0,94,0.00,,---,0.00,VWS V14.01,2013-07-12 08:56:00,
2013-07-12 05:01:00,65.0,63.2,29.81,NE,41,0.0,0.0,94,0.00,,---,0.00,VWS V14.01,2013-07-12 09:01:00,
2013-07-12 05:06:00,65.0,63.2,29.81,NE,41,0.0,0.0,94,0.00,,---,0.00,VWS V14.01,2013-07-12 09:06:00,
2013-07-12 05:11:00,64.8,63.0,29.81,NE,41,0.0,0.0,94,0.00,,---,0.00,VWS V14.01,2013-07-12 09:11:00,
2013-07-12 05:16:00,65.0,63.2,29.81,NE,41,0.0,0.0,94,0.00,,---,0.00,VWS V14.01,2013-07-12 09:16:00,
2013-07-12 05:21:00,65.0,63.2,29.81,NE,41,0.0,0.0,94,0.00,,---,0.00,VWS V14.01,2013-07-12 09:21:00,
2013-07-12 05:26:00,65.0,63.2,29.81,NE,41,0.0,0.0,94,0.00,,---,0.00,VWS V14.01,2013-07-12 09:26:00,
2013-07-12 05:31:00,65.2,63.4,29.81,NE,41,0.0,0.0,94,0.00,,---,0.00,VWS V14.01,2013-07-12 09:31:00,
2013-07-12 05:36:00,65.2,63.4,29.81,NE,41,0.0,0.0,94,0.00,,---,0.00,VWS V14.01,2013-07-12 09:36:00,
2013-07-12 05:41:00,65.3,63.5,29.81,NE,41,0.0,0.0,94,0.00,,---,0.00,VWS V14.01,2013-07-12 09:41:00,
2013-07-12 05:46:00,65.2,63.7,29.81,NE,41,0.0,0.0,95,0.00,,---,0.00,VWS V14.01,2013-07-12 09:46:00,
2013-07-12 05:51:00,65.2,63.7,29.81,NE,41,0.0,0.0,95,0.00,,---,0.00,VWS V14.01,2013-07-12 09:51:00,
2013-07-12 05:56:00,65.2,63.7,29.81,NE,41,0.0,0.0,95,0.00,,---,0.00,VWS V14.01,2013-07-12 09:56:00,
2013-07-12 06:01:00,65.3,63.8,29.82,NE,41,0.0,0.0,95,0.00,,---,0.00,VWS V14.01,2013-07-12 10:01:00,
2013-07-12 06:06:00,65.3,63.8,29.82,NE,41,0.0,0.0,95,0.00,,---,0.00,VWS V14.01,2013-07-12 10:06:00,
2013-07-12 06:11:00,65.3,63.8,29.82,NE,41,0.0,0.0,95,0.00,,---,0.00,VWS V14.01,2013-07-12 10:11:00,
2013-07-12 06:16:00,65.3,63.8,29.82,NE,41,0.0,0.0,95,0.00,,---,0.00,VWS V14.01,2013-07-12 10:16:00,
2013-07-12 06:21:00,65.3,63.8,29.82,NE,41,0.0,0.0,95,0.00,,---,0.00,VWS V14.01,2013-07-12 10:21:00,
2013-07-12 06:26:00,65.3,63.8,29.82,NE,41,0.0,0.0,95,0.00,,---,0.00,VWS V14.01,2013-07-12 10:26:00,
2013-07-12 06:31:00,65.5,64.0,29.82,NE,41,0.0,0.0,95,0.00,,---,0.00,VWS V14.01,2013-07-12 10:31:00,
2013-07-12 06:36:00,65.5,64.0,29.82,NE,41,0.0,0.0,95,0.00,,---,0.00,VWS V14.01,2013-07-12 10:36:00,
2013-07-12 06:41:00,65.5,64.0,29.82,NE,41,0.0,0.0,95,0.00,,---,0.00,VWS V14.01,2013-07-12 10:41:00,
2013-07-12 06:46:00,65.3,63.8,29.82,NE,41,0.0,0.0,95,0.00,,---,0.00,VWS V14.01,2013-07-12 10:46:00,
2013-07-12 06:51:00,65.3,63.8,29.82,NE,41,0.0,0.0,95,0.00,,---,0.00,VWS V14.01,2013-07-12 10:51:00,
2013-07-12 06:56:00,65.3,63.8,29.82,NE,41,0.0,0.0,95,0.00,,---,0.00,VWS V14.01,2013-07-12 10:56:00,
2013-07-12 07:01:00,65.3,63.8,29.83,NE,41,0.0,0.0,95,0.00,,---,0.00,VWS V14.01,2013-07-12 11:01:00,
2013-07-12 07:06:00,65.3,63.8,29.83,NE,41,0.0,0.0,95,0.00,,---,0.00,VWS V14.01,2013-07-12 11:06:00,
2013-07-12 07:11:00,65.5,64.0,29.83,NE,41,0.0,0.0,95,0.00,,---,0.00,VWS V14.01,2013-07-12 11:11:00,
2013-07-12 07:16:00,65.5,64.0,29.83,NE,41,0.0,0.0,95,0.00,,---,0.00,VWS V14.01,2013-07-12 11:16:00,
2013-07-12 07:21:00,65.6,64.1,29.83,NE,41,0.0,0.0,95,0.00,,---,0.00,VWS V14.01,2013-07-12 11:21:00,
2013-07-12 07:26:00,65.6,64.1,29.83,NE,41,0.0,0.0,95,0.00,,---,0.00,VWS V14.01,2013-07-12 11:26:00,
2013-07-12 07:31:00,65.8,64.3,29.83,NE,41,0.0,0.0,95,0.00,,---,0.00,VWS V14.01,2013-07-12 11:31:00,
2013-07-12 07:36:00,66.0,64.5,29.83,NE,41,0.0,0.0,95,0.00,,---,0.00,VWS V14.01,2013-07-12 11:36:00,
2013-07-12 07:41:00,66.0,64.5,29.83,NE,41,0.0,0.0,95,0.00,,---,0.00,VWS V14.01,2013-07-12 11:41:00,
2013-07-12 07:46:00,66.0,64.5,29.83,NE,41,0.0,0.0,95,0.00,,---,0.00,VWS V14.01,2013-07-12 11:46:00,
2013-07-12 07:51:00,66.0,64.5,29.83,NE,41,0.0,0.0,95,0.00,,---,0.00,VWS V14.01,2013-07-12 11:51:00,
2013-07-12 07:56:00,66.0,64.5,29.83,NE,41,0.0,0.0,95,0.00,,---,0.00,VWS V14.01,2013-07-12 11:56:00,
2013-07-12 08:01:00,66.1,64.9,29.84,NE,41,0.0,0.0,96,0.00,,---,0.00,VWS V14.01,2013-07-12 12:01:00,
2013-07-12 08:06:00,66.1,64.6,29.84,NE,41,0.0,0.0,95,0.00,,---,0.00,VWS V14.01,2013-07-12 12:06:00,
2013-07-12 08:11:00,66.3,65.1,29.84,NE,41,0.0,0.0,96,0.00,,---,0.00,VWS V14.01,2013-07-12 12:11:00,
2013-07-12 08:16:00,66.4,65.2,29.85,NE,41,0.0,0.0,96,0.00,,---,0.00,VWS V14.01,2013-07-12 12:16:00,
2013-07-12 08:21:00,66.4,65.2,29.85,NE,41,0.0,0.0,96,0.00,,---,0.00,VWS V14.01,2013-07-12 12:21:00,
2013-07-12 08:26:00,66.4,65.2,29.85,NE,41,0.0,0.0,96,0.00,,---,0.00,VWS V14.01,2013-07-12 12:26:00,
2013-07-12 08:31:00,66.4,65.2,29.85,NE,41,0.0,0.0,96,0.00,,---,0.00,VWS V14.01,2013-07-12 12:31:00,
2013-07-12 08:36:00,66.6,65.4,29.85,NE,41,0.0,0.0,96,0.00,,---,0.00,VWS V14.01,2013-07-12 12:36:00,
2013-07-12 08:41:00,66.6,65.4,29.85,NE,41,0.0,0.0,96,0.00,,---,0.00,VWS V14.01,2013-07-12 12:41:00,
2013-07-12 08:46:00,66.6,65.4,29.85,NE,41,0.0,0.0,96,0.00,,---,0.00,VWS V14.01,2013-07-12 12:46:00,
2013-07-12 08:51:00,66.8,65.6,29.85,NE,41,0.0,0.0,96,0.00,,---,0.00,VWS V14.01,2013-07-12 12:51:00,
2013-07-12 08:56:00,66.9,65.7,29.85,NE,41,0.0,0.0,96,0.00,,---,0.00,VWS V14.01,2013-07-12 12:56:00,
2013-07-12 09:01:00,66.9,65.7,29.85,NE,41,0.0,0.0,96,0.00,,---,0.00,VWS V14.01,2013-07-12 13:01:00,
2013-07-12 09:06:00,66.9,65.7,29.85,NE,41,0.0,0.0,96,0.00,,---,0.00,VWS V14.01,2013-07-12 13:06:00,
2013-07-12 09:11:00,66.9,65.7,29.85,NE,41,0.0,0.0,96,0.00,,---,0.00,VWS V14.01,2013-07-12 13:11:00,
2013-07-12 09:16:00,67.1,65.9,29.86,NE,41,0.0,0.0,96,0.00,,---,0.00,VWS V14.01,2013-07-12 13:16:00,
2013-07-12 09:21:00,67.4,66.2,29.86,NE,41,0.0,1.0,96,0.00,,---,0.00,VWS V14.01,2013-07-12 13:21:00,
2013-07-12 09:26:00,67.6,66.4,29.86,NE,41,0.0,0.0,96,0.00,,---,0.00,VWS V14.01,2013-07-12 13:26:00,
2013-07-12 09:31:00,67.6,66.1,29.86,NE,41,0.0,1.0,95,0.00,,---,0.00,VWS V14.01,2013-07-12 13:31:00,
2013-07-12 09:36:00,67.8,66.3,29.86,NE,41,0.0,0.0,95,0.00,,---,0.00,VWS V14.01,2013-07-12 13:36:00,
2013-07-12 09:41:00,67.9,66.4,29.86,NE,41,0.0,0.0,95,0.00,,---,0.00,VWS V14.01,2013-07-12 13:41:00,
2013-07-12 09:46:00,67.9,66.4,29.86,NE,41,0.0,0.0,95,0.00,,---,0.00,VWS V14.01,2013-07-12 13:46:00,
2013-07-12 09:51:00,68.1,66.6,29.86,NE,41,0.0,0.0,95,0.00,,---,0.00,VWS V14.01,2013-07-12 13:51:00,
2013-07-12 09:56:00,68.3,66.8,29.86,NE,41,0.0,0.0,95,0.00,,---,0.00,VWS V14.01,2013-07-12 13:56:00,
2013-07-12 10:01:00,68.4,66.9,29.86,NE,41,0.0,0.0,95,0.00,,---,0.00,VWS V14.01,2013-07-12 14:01:00,
2013-07-12 10:06:00,68.6,67.1,29.86,NE,41,0.0,0.0,95,0.00,,---,0.00,VWS V14.01,2013-07-12 14:06:00,
2013-07-12 10:11:00,69.1,67.3,29.86,NE,41,0.0,0.0,94,0.00,,---,0.00,VWS V14.01,2013-07-12 14:11:00,
2013-07-12 10:16:00,69.4,67.6,29.86,NE,41,0.0,0.0,94,0.00,,---,0.00,VWS V14.01,2013-07-12 14:16:00,
2013-07-12 10:21:00,69.8,68.0,29.86,NE,41,0.0,0.0,94,0.00,,---,0.00,VWS V14.01,2013-07-12 14:21:00,
2013-07-12 10:26:00,70.3,68.2,29.86,NE,41,0.0,0.0,93,0.00,,---,0.00,VWS V14.01,2013-07-12 14:26:00,
2013-07-12 10:31:00,70.9,68.5,29.86,NE,41,0.0,0.0,92,0.00,,---,0.00,VWS V14.01,2013-07-12 14:31:00,
2013-07-12 10:36:00,71.3,68.9,29.86,NE,41,0.0,0.0,92,0.00,,---,0.00,VWS V14.01,2013-07-12 14:36:00,
2013-07-12 10:41:00,71.6,68.5,29.86,NE,41,0.0,0.0,90,0.00,,---,0.00,VWS V14.01,2013-07-12 14:41:00,
2013-07-12 10:46:00,71.8,68.4,29.85,NE,41,0.0,0.0,89,0.00,,---,0.00,VWS V14.01,2013-07-12 14:46:00,
2013-07-12 10:51:00,72.3,68.9,29.85,NE,41,0.0,0.0,89,0.00,,---,0.00,VWS V14.01,2013-07-12 14:51:00,
2013-07-12 10:56:00,72.7,69.3,29.85,NE,41,0.0,0.0,89,0.00,,---,0.00,VWS V14.01,2013-07-12 14:56:00,
2013-07-12 11:01:00,73.2,69.1,29.84,NE,41,0.0,0.0,87,0.00,,---,0.00,VWS V14.01,2013-07-12 15:01:00,
2013-07-12 11:06:00,73.9,69.1,29.84,NE,41,0.0,0.0,85,0.00,,---,0.00,VWS V14.01,2013-07-12 15:06:00,
2013-07-12 11:11:00,74.2,68.7,29.84,NE,41,0.0,0.0,83,0.00,,---,0.00,VWS V14.01,2013-07-12 15:11:00,
2013-07-12 11:16:00,74.2,67.6,29.84,NE,41,0.0,0.0,80,0.00,,---,0.00,VWS V14.01,2013-07-12 15:16:00,
2013-07-12 11:21:00,74.4,68.6,29.84,NE,41,0.0,0.0,82,0.00,,---,0.00,VWS V14.01,2013-07-12 15:21:00,
2013-07-12 11:26:00,74.6,68.8,29.84,NE,41,0.0,0.0,82,0.00,,---,0.00,VWS V14.01,2013-07-12 15:26:00,
2013-07-12 11:31:00,74.6,68.4,29.85,NE,41,0.0,0.0,81,0.00,,---,0.00,VWS V14.01,2013-07-12 15:31:00,
2013-07-12 11:36:00,74.6,68.8,29.85,NE,41,0.0,0.0,82,0.00,,---,0.00,VWS V14.01,2013-07-12 15:36:00,
2013-07-12 11:41:00,74.4,68.9,29.85,NE,41,0.0,0.0,83,0.00,,---,0.00,VWS V14.01,2013-07-12 15:41:00,
2013-07-12 11:46:00,74.6,69.1,29.85,NE,41,0.0,0.0,83,0.00,,---,0.00,VWS V14.01,2013-07-12 15:46:00,
2013-07-12 11:51:00,74.6,69.1,29.85,NE,41,0.0,0.0,83,0.00,,---,0.00,VWS V14.01,2013-07-12 15:51:00,
2013-07-12 11:56:00,74.9,69.7,29.85,NE,41,0.0,0.0,84,0.00,,---,0.00,VWS V14.01,2013-07-12 15:56:00,
2013-07-12 12:01:00,75.3,69.4,29.85,NE,41,0.0,2.0,82,0.00,,---,0.00,VWS V14.01,2013-07-12 16:01:00,
2013-07-12 12:05:00,76.3,69.7,29.85,NE,41,0.0,0.0,80,0.00,,---,0.00,VWS V14.01,2013-07-12 16:05:00,
2013-07-12 12:11:00,76.5,68.4,29.85,NE,41,2.0,2.0,76,0.00,,---,0.00,VWS V14.01,2013-07-12 16:11:00,
2013-07-12 12:15:00,76.3,68.6,29.85,SE,131,0.0,5.0,77,0.00,,---,0.00,VWS V14.01,2013-07-12 16:15:00,
2013-07-12 12:20:00,76.7,70.1,29.85,SE,131,0.0,0.0,80,0.00,,---,0.00,VWS V14.01,2013-07-12 16:20:00,
2013-07-12 12:25:00,77.2,70.6,29.85,SE,131,0.0,1.0,80,0.00,,---,0.00,VWS V14.01,2013-07-12 16:25:00,
2013-07-12 12:30:00,77.7,71.0,29.84,SE,131,0.0,0.0,80,0.00,,---,0.00,VWS V14.01,2013-07-12 16:30:00,
2013-07-12 12:35:00,77.9,69.3,29.84,SE,131,0.0,0.0,75,0.00,,---,0.00,VWS V14.01,2013-07-12 16:35:00,
2013-07-12 12:40:00,78.1,68.3,29.84,SE,131,0.0,0.0,72,0.00,,---,0.00,VWS V14.01,2013-07-12 16:40:00,
2013-07-12 12:45:00,78.3,69.7,29.83,SE,131,0.0,0.0,75,0.00,,---,0.00,VWS V14.01,2013-07-12 16:45:00,
2013-07-12 12:50:00,78.1,69.5,29.83,SE,131,0.0,0.0,75,0.00,,---,0.00,VWS V14.01,2013-07-12 16:50:00,
2013-07-12 12:55:00,78.3,69.7,29.83,SE,131,0.0,0.0,75,0.00,,---,0.00,VWS V14.01,2013-07-12 16:55:00,
2013-07-12 13:00:00,77.6,69.1,29.84,SE,131,0.0,0.0,75,0.00,,---,0.00,VWS V14.01,2013-07-12 17:00:00,
2013-07-12 13:06:00,76.8,68.7,29.84,SE,131,0.0,0.0,76,0.00,,---,0.00,VWS V14.01,2013-07-12 17:06:00,
2013-07-12 13:11:00,76.5,68.8,29.84,SE,131,0.0,0.0,77,0.00,,---,0.00,VWS V14.01,2013-07-12 17:11:00,
2013-07-12 13:16:00,76.5,68.8,29.84,SE,131,0.0,0.0,77,0.00,,---,0.00,VWS V14.01,2013-07-12 17:16:00,
2013-07-12 13:21:00,76.5,68.8,29.84,SE,131,0.0,0.0,77,0.00,,---,0.00,VWS V14.01,2013-07-12 17:21:00,
2013-07-12 13:26:00,76.8,70.2,29.84,SE,131,0.0,0.0,80,0.00,,---,0.00,VWS V14.01,2013-07-12 17:26:00,
2013-07-12 13:31:00,77.4,70.0,29.84,SE,131,0.0,0.0,78,0.00,,---,0.00,VWS V14.01,2013-07-12 17:31:00,
2013-07-12 13:36:00,77.4,69.2,29.84,SE,131,0.0,0.0,76,0.00,,---,0.00,VWS V14.01,2013-07-12 17:36:00,
2013-07-12 13:41:00,77.6,69.4,29.84,SE,131,0.0,0.0,76,0.00,,---,0.00,VWS V14.01,2013-07-12 17:41:00,
2013-07-12 13:46:00,77.9,69.3,29.84,SE,131,0.0,0.0,75,0.00,,---,0.00,VWS V14.01,2013-07-12 17:46:00,
2013-07-12 13:51:00,78.6,69.6,29.84,SE,131,0.0,0.0,74,0.00,,---,0.00,VWS V14.01,2013-07-12 17:51:00,
2013-07-12 13:56:00,78.6,69.6,29.83,SE,131,0.0,0.0,74,0.00,,---,0.00,VWS V14.01,2013-07-12 17:56:00,
2013-07-12 14:02:00,78.6,68.8,29.83,SE,131,0.0,0.0,72,0.00,,---,0.00,VWS V14.01,2013-07-12 18:02:00,
2013-07-12 14:07:00,78.8,68.6,29.83,South,170,0.0,0.0,71,0.00,,---,0.00,VWS V14.01,2013-07-12 18:07:00,
2013-07-12 14:12:00,79.2,69.0,29.83,South,170,0.0,0.0,71,0.00,,---,0.00,VWS V14.01,2013-07-12 18:12:00,
2013-07-12 14:17:00,79.0,69.2,29.83,South,170,0.0,0.0,72,0.00,,---,0.00,VWS V14.01,2013-07-12 18:17:00,
2013-07-12 14:22:00,78.6,68.8,29.83,South,170,0.0,3.0,72,0.00,,---,0.00,VWS V14.01,2013-07-12 18:22:00,
2013-07-12 14:27:00,78.8,70.2,29.83,South,170,0.0,1.0,75,0.00,,---,0.00,VWS V14.01,2013-07-12 18:27:00,
2013-07-12 14:32:00,78.8,71.0,29.83,South,170,0.0,0.0,77,0.00,,---,0.00,VWS V14.01,2013-07-12 18:32:00,
2013-07-12 14:37:00,78.6,69.6,29.83,SE,145,0.0,2.0,74,0.00,,---,0.00,VWS V14.01,2013-07-12 18:37:00,
2013-07-12 14:42:00,78.6,69.6,29.84,SE,145,0.0,0.0,74,0.00,,---,0.00,VWS V14.01,2013-07-12 18:42:00,
2013-07-12 14:47:00,78.1,69.1,29.84,SE,145,0.0,0.0,74,0.00,,---,0.00,VWS V14.01,2013-07-12 18:47:00,
2013-07-12 14:52:00,77.6,69.1,29.84,SE,145,0.0,0.0,75,0.00,,---,0.00,VWS V14.01,2013-07-12 18:52:00,
2013-07-12 14:57:00,76.7,67.8,29.85,SE,145,0.0,0.0,74,0.00,,---,0.00,VWS V14.01,2013-07-12 18:57:00,
2013-07-12 15:02:00,75.8,66.5,29.85,SE,145,0.0,0.0,73,0.00,,---,0.00,VWS V14.01,2013-07-12 19:02:00,
2013-07-12 15:07:00,75.4,66.9,29.85,SE,145,0.0,0.0,75,0.00,,---,0.00,VWS V14.01,2013-07-12 19:07:00,
2013-07-12 15:12:00,75.3,68.0,29.85,SE,145,0.0,0.0,78,0.00,,---,0.00,VWS V14.01,2013-07-12 19:12:00,
2013-07-12 15:17:00,75.1,68.5,29.85,SE,145,0.0,0.0,80,0.00,,---,0.00,VWS V14.01,2013-07-12 19:17:00,
2013-07-12 15:22:00,74.7,67.8,29.85,SE,145,0.0,0.0,79,0.00,,---,0.00,VWS V14.01,2013-07-12 19:22:00,
2013-07-12 15:27:00,74.9,69.4,29.85,SE,145,0.0,0.0,83,0.00,,---,0.00,VWS V14.01,2013-07-12 19:27:00,
2013-07-12 15:32:00,75.1,70.3,29.85,SE,145,0.0,0.0,85,0.00,,---,0.00,VWS V14.01,2013-07-12 19:32:00,
2013-07-12 15:37:00,74.9,70.1,29.85,SE,145,0.0,0.0,85,0.00,,---,0.00,VWS V14.01,2013-07-12 19:37:00,
2013-07-12 15:42:00,74.9,69.7,29.83,SE,145,0.0,0.0,84,0.00,,---,0.00,VWS V14.01,2013-07-12 19:42:00,
2013-07-12 15:47:00,74.9,70.1,29.83,SE,145,0.0,0.0,85,0.00,,---,0.00,VWS V14.01,2013-07-12 19:47:00,
2013-07-12 15:52:00,75.1,70.3,29.83,SE,145,0.0,0.0,85,0.00,,---,0.00,VWS V14.01,2013-07-12 19:52:00,
2013-07-12 15:57:00,75.1,70.3,29.83,SE,145,0.0,0.0,85,0.00,,---,0.00,VWS V14.01,2013-07-12 19:57:00,
2013-07-12 16:02:00,75.3,70.1,29.83,SE,145,0.0,0.0,84,0.00,,---,0.00,VWS V14.01,2013-07-12 20:02:00,
2013-07-12 16:07:00,75.4,70.2,29.83,SE,145,0.0,0.0,84,0.00,,---,0.00,VWS V14.01,2013-07-12 20:07:00,
2013-07-12 16:12:00,75.3,69.4,29.83,SE,145,0.0,0.0,82,0.00,,---,0.00,VWS V14.01,2013-07-12 20:12:00,
2013-07-12 16:17:00,75.6,70.4,29.83,SE,145,0.0,0.0,84,0.00,,---,0.00,VWS V14.01,2013-07-12 20:17:00,
2013-07-12 16:22:00,75.8,70.6,29.83,SE,145,0.0,0.0,84,0.00,,---,0.00,VWS V14.01,2013-07-12 20:22:00,
2013-07-12 16:27:00,76.0,70.8,29.83,SE,145,0.0,0.0,84,0.00,,---,0.00,VWS V14.01,2013-07-12 20:27:00,
2013-07-12 16:32:00,75.6,68.6,29.83,ENE,74,0.0,2.0,79,0.00,,---,0.00,VWS V14.01,2013-07-12 20:32:00,
2013-07-12 16:37:00,74.9,66.4,29.83,ENE,63,0.0,1.0,75,0.00,,---,0.00,VWS V14.01,2013-07-12 20:37:00,
2013-07-12 16:43:00,74.2,65.0,29.84,ENE,67,0.0,0.0,73,0.00,,---,0.00,VWS V14.01,2013-07-12 20:43:00,
2013-07-12 16:48:00,73.0,64.2,29.84,ENE,67,0.0,0.0,74,0.00,,---,0.00,VWS V14.01,2013-07-12 20:48:00,
2013-07-12 16:53:00,72.1,64.5,29.84,ENE,67,0.0,0.0,77,0.00,,---,0.00,VWS V14.01,2013-07-12 20:53:00,
2013-07-12 16:58:00,71.5,63.9,29.85,ENE,67,0.0,0.0,77,0.00,,---,0.00,VWS V14.01,2013-07-12 20:58:00,
2013-07-12 17:03:00,71.1,63.9,29.85,ENE,67,0.0,0.0,78,0.00,,---,0.00,VWS V14.01,2013-07-12 21:03:00,
2013-07-12 17:08:00,70.8,63.2,29.85,ENE,67,0.0,0.0,77,0.00,,---,0.00,VWS V14.01,2013-07-12 21:08:00,
2013-07-12 17:13:00,70.6,63.4,29.86,ENE,67,0.0,0.0,78,0.00,,---,0.00,VWS V14.01,2013-07-12 21:13:00,
2013-07-12 17:18:00,70.1,63.3,29.86,ENE,67,0.0,0.0,79,0.00,,---,0.00,VWS V14.01,2013-07-12 21:18:00,
2013-07-12 17:23:00,69.6,63.2,29.86,ENE,67,0.0,0.0,80,0.00,,---,0.00,VWS V14.01,2013-07-12 21:23:00,
2013-07-12 17:29:00,69.3,62.9,29.87,ENE,67,0.0,0.0,80,0.00,,---,0.00,VWS V14.01,2013-07-12 21:29:00,
2013-07-12 17:34:00,68.9,62.8,29.87,ENE,67,0.0,0.0,81,0.00,,---,0.00,VWS V14.01,2013-07-12 21:34:00,
2013-07-12 17:39:00,68.8,63.1,29.87,ENE,67,0.0,0.0,82,0.00,,---,0.00,VWS V14.01,2013-07-12 21:39:00,
2013-07-12 17:44:00,68.6,62.9,29.88,ENE,67,0.0,0.0,82,0.00,,---,0.00,VWS V14.01,2013-07-12 21:44:00,
2013-07-12 17:49:00,68.4,63.0,29.88,ENE,67,0.0,0.0,83,0.00,,---,0.00,VWS V14.01,2013-07-12 21:49:00,
2013-07-12 17:54:00,68.3,63.3,29.88,ENE,67,0.0,0.0,84,0.00,,---,0.00,VWS V14.01,2013-07-12 21:54:00,
2013-07-12 17:59:00,68.3,62.9,29.89,ENE,67,0.0,0.0,83,0.00,,---,0.00,VWS V14.01,2013-07-12 21:59:00,
2013-07-12 18:04:00,68.3,62.6,29.89,ENE,67,0.0,0.0,82,0.00,,---,0.00,VWS V14.01,2013-07-12 22:04:00,
2013-07-12 18:09:00,68.4,62.7,29.89,ENE,67,0.0,0.0,82,0.00,,---,0.00,VWS V14.01,2013-07-12 22:09:00,
2013-07-12 18:14:00,68.6,62.9,29.89,ENE,67,0.0,0.0,82,0.00,,---,0.00,VWS V14.01,2013-07-12 22:14:00,
2013-07-12 18:19:00,68.8,62.7,29.89,ENE,67,0.0,0.0,81,0.00,,---,0.00,VWS V14.01,2013-07-12 22:19:00,
2013-07-12 18:24:00,68.9,63.2,29.89,ENE,67,0.0,0.0,82,0.00,,---,0.00,VWS V14.01,2013-07-12 22:24:00,
2013-07-12 18:29:00,68.9,62.8,29.90,ENE,67,0.0,0.0,81,0.00,,---,0.00,VWS V14.01,2013-07-12 22:29:00,
2013-07-12 18:34:00,69.1,63.0,29.90,ENE,67,0.0,0.0,81,0.00,,---,0.00,VWS V14.01,2013-07-12 22:34:00,
2013-07-12 18:39:00,69.1,63.0,29.90,ENE,67,0.0,0.0,81,0.00,,---,0.00,VWS V14.01,2013-07-12 22:39:00,
2013-07-12 18:44:00,69.3,63.6,29.89,ENE,67,0.0,0.0,82,0.00,,---,0.00,VWS V14.01,2013-07-12 22:44:00,
2013-07-12 18:49:00,69.1,63.4,29.89,ENE,67,0.0,0.0,82,0.00,,---,0.00,VWS V14.01,2013-07-12 22:49:00,
2013-07-12 18:54:00,69.1,63.7,29.89,ENE,67,0.0,1.0,83,0.00,,---,0.00,VWS V14.01,2013-07-12 22:54:00,
2013-07-12 18:59:00,69.1,63.7,29.89,ENE,67,0.0,0.0,83,0.00,,---,0.00,VWS V14.01,2013-07-12 22:59:00,
2013-07-12 19:04:00,68.9,63.9,29.89,ENE,67,0.0,0.0,84,0.00,,---,0.00,VWS V14.01,2013-07-12 23:04:00,
2013-07-12 19:09:00,68.9,63.5,29.89,ENE,67,0.0,0.0,83,0.00,,---,0.00,VWS V14.01,2013-07-12 23:09:00,
2013-07-12 19:15:00,68.9,63.5,29.88,ENE,67,0.0,0.0,83,0.00,,---,0.00,VWS V14.01,2013-07-12 23:15:00,
2013-07-12 19:20:00,69.1,63.7,29.88,ENE,67,0.0,0.0,83,0.00,,---,0.00,VWS V14.01,2013-07-12 23:20:00,
2013-07-12 19:25:00,68.9,63.9,29.88,ENE,67,0.0,0.0,84,0.00,,---,0.00,VWS V14.01,2013-07-12 23:25:00,
2013-07-12 19:30:00,68.9,63.9,29.89,ENE,67,0.0,0.0,84,0.00,,---,0.00,VWS V14.01,2013-07-12 23:30:00,
2013-07-12 19:35:00,68.9,63.9,29.89,ENE,67,0.0,0.0,84,0.00,,---,0.00,VWS V14.01,2013-07-12 23:35:00,
2013-07-12 19:40:00,69.1,64.4,29.89,ENE,67,0.0,0.0,85,0.00,,---,0.00,VWS V14.01,2013-07-12 23:40:00,
2013-07-12 19:45:00,69.1,64.4,29.89,ENE,67,0.0,0.0,85,0.00,,---,0.00,VWS V14.01,2013-07-12 23:45:00,
2013-07-12 19:50:00,69.1,64.4,29.89,ENE,67,0.0,0.0,85,0.00,,---,0.00,VWS V14.01,2013-07-12 23:50:00,
2013-07-12 19:55:00,69.1,64.7,29.89,ENE,67,0.0,0.0,86,0.00,,---,0.00,VWS V14.01,2013-07-12 23:55:00,
2013-07-12 20:00:00,69.1,64.7,29.90,ENE,67,0.0,0.0,86,0.00,,---,0.00,VWS V14.01,2013-07-13 00:00:00,
2013-07-12 20:05:00,68.9,64.6,29.90,ENE,67,0.0,0.0,86,0.00,,---,0.00,VWS V14.01,2013-07-13 00:05:00,
2013-07-12 20:10:00,68.8,64.4,29.90,ENE,67,0.0,0.0,86,0.00,,---,0.00,VWS V14.01,2013-07-13 00:10:00,
2013-07-12 20:15:00,68.8,64.4,29.89,ENE,67,0.0,0.0,86,0.00,,---,0.00,VWS V14.01,2013-07-13 00:15:00,
2013-07-12 20:20:00,68.8,64.8,29.89,ENE,67,0.0,0.0,87,0.00,,---,0.00,VWS V14.01,2013-07-13 00:20:00,
2013-07-12 20:25:00,68.8,64.8,29.89,ENE,67,0.0,1.0,87,0.00,,---,0.00,VWS V14.01,2013-07-13 00:25:00,
2013-07-12 20:30:00,68.6,64.6,29.90,ENE,67,0.0,0.0,87,0.00,,---,0.00,VWS V14.01,2013-07-13 00:30:00,
2013-07-12 20:35:00,68.6,64.6,29.90,ENE,67,0.0,0.0,87,0.00,,---,0.00,VWS V14.01,2013-07-13 00:35:00,
2013-07-12 20:40:00,68.6,64.6,29.90,ENE,67,0.0,0.0,87,0.00,,---,0.00,VWS V14.01,2013-07-13 00:40:00,
2013-07-12 20:45:00,68.6,64.6,29.89,ENE,67,0.0,0.0,87,0.00,,---,0.00,VWS V14.01,2013-07-13 00:45:00,
2013-07-12 20:50:00,68.6,64.6,29.89,ENE,67,0.0,0.0,87,0.00,,---,0.00,VWS V14.01,2013-07-13 00:50:00,
2013-07-12 20:55:00,68.6,64.9,29.89,ENE,67,0.0,0.0,88,0.00,,---,0.00,VWS V14.01,2013-07-13 00:55:00,
2013-07-12 21:00:00,68.4,64.7,29.89,ENE,67,0.0,0.0,88,0.00,,---,0.00,VWS V14.01,2013-07-13 01:00:00,
2013-07-12 21:05:00,68.4,64.7,29.89,ENE,67,0.0,0.0,88,0.00,,---,0.00,VWS V14.01,2013-07-13 01:05:00,
2013-07-12 21:11:00,68.4,64.7,29.89,ENE,67,0.0,0.0,88,0.00,,---,0.00,VWS V14.01,2013-07-13 01:11:00,
2013-07-12 21:16:00,68.3,64.6,29.89,ENE,67,0.0,0.0,88,0.00,,---,0.00,VWS V14.01,2013-07-13 01:16:00,
2013-07-12 21:21:00,68.3,64.9,29.89,ENE,67,0.0,0.0,89,0.00,,---,0.00,VWS V14.01,2013-07-13 01:21:00,
2013-07-12 21:26:00,68.1,64.7,29.89,ENE,67,0.0,0.0,89,0.00,,---,0.00,VWS V14.01,2013-07-13 01:26:00,
2013-07-12 21:31:00,68.1,64.7,29.89,ENE,67,0.0,0.0,89,0.00,,---,0.00,VWS V14.01,2013-07-13 01:31:00,
2013-07-12 21:36:00,68.1,64.7,29.89,ENE,67,0.0,0.0,89,0.00,,---,0.00,VWS V14.01,2013-07-13 01:36:00,
2013-07-12 21:41:00,67.9,64.5,29.89,ENE,67,0.0,0.0,89,0.00,,---,0.00,VWS V14.01,2013-07-13 01:41:00,
2013-07-12 21:46:00,67.9,64.9,29.90,ENE,67,0.0,0.0,90,0.00,,---,0.00,VWS V14.01,2013-07-13 01:46:00,
2013-07-12 21:51:00,67.8,64.8,29.90,ENE,67,0.0,0.0,90,0.00,,---,0.00,VWS V14.01,2013-07-13 01:51:00,
2013-07-12 21:56:00,67.8,64.8,29.90,ENE,67,0.0,0.0,90,0.00,,---,0.00,VWS V14.01,2013-07-13 01:56:00,
2013-07-12 22:01:00,67.8,64.8,29.91,ENE,67,0.0,0.0,90,0.00,,---,0.00,VWS V14.01,2013-07-13 02:01:00,
2013-07-12 22:06:00,67.8,64.8,29.91,ENE,67,0.0,0.0,90,0.00,,---,0.00,VWS V14.01,2013-07-13 02:06:00,
2013-07-12 22:11:00,67.8,64.8,29.91,ENE,67,0.0,0.0,90,0.00,,---,0.00,VWS V14.01,2013-07-13 02:11:00,
2013-07-12 22:17:00,67.3,64.3,29.91,ENE,67,0.0,0.0,90,0.00,,---,0.00,VWS V14.01,2013-07-13 02:17:00,
2013-07-12 22:22:00,66.9,63.6,29.91,ENE,67,0.0,0.0,89,0.00,,---,0.00,VWS V14.01,2013-07-13 02:22:00,
2013-07-12 22:27:00,66.4,62.7,29.92,ENE,67,0.0,1.0,88,0.00,,---,0.00,VWS V14.01,2013-07-13 02:27:00,
2013-07-12 22:32:00,66.1,62.1,29.92,ENE,67,0.0,0.0,87,0.00,,---,0.00,VWS V14.01,2013-07-13 02:32:00,
2013-07-12 22:37:00,65.8,61.5,29.92,ENE,67,4.0,5.0,86,0.00,,---,0.00,VWS V14.01,2013-07-13 02:37:00,
2013-07-12 22:42:00,65.3,60.7,29.93,ENE,69,0.0,6.0,85,0.00,,---,0.00,VWS V14.01,2013-07-13 02:42:00,
2013-07-12 22:47:00,64.8,59.9,29.93,ENE,70,0.0,1.0,84,0.00,,---,0.00,VWS V14.01,2013-07-13 02:47:00,
2013-07-12 22:52:00,64.7,60.1,29.93,ENE,72,0.0,1.0,85,0.00,,---,0.00,VWS V14.01,2013-07-13 02:52:00,
2013-07-12 22:57:00,64.7,60.4,29.94,ENE,74,7.0,7.0,86,0.00,,---,0.00,VWS V14.01,2013-07-13 02:57:00,
2013-07-12 23:02:00,64.3,60.0,29.94,ENE,77,0.0,7.0,86,0.00,,---,0.00,VWS V14.01,2013-07-13 03:02:00,
2013-07-12 23:07:00,64.2,60.3,29.94,ENE,77,0.0,3.0,87,0.00,,---,0.00,VWS V14.01,2013-07-13 03:07:00,
2013-07-12 23:12:00,64.2,60.3,29.93,ENE,77,3.0,5.0,87,0.00,,---,0.00,VWS V14.01,2013-07-13 03:12:00,
2013-07-12 23:17:00,64.0,60.4,29.93,ENE,77,0.0,3.0,88,0.00,,---,0.00,VWS V14.01,2013-07-13 03:17:00,
2013-07-12 23:22:00,63.9,60.3,29.93,ENE,77,0.0,0.0,88,0.00,,---,0.00,VWS V14.01,2013-07-13 03:22:00,
2013-07-12 23:27:00,63.7,60.4,29.93,ENE,77,0.0,0.0,89,0.00,,---,0.00,VWS V14.01,2013-07-13 03:27:00,
2013-07-12 23:32:00,63.5,60.2,29.93,ENE,77,0.0,0.0,89,0.00,,---,0.00,VWS V14.01,2013-07-13 03:32:00,
2013-07-12 23:37:00,63.4,60.1,29.93,ENE,74,5.0,5.0,89,0.00,,---,0.00,VWS V14.01,2013-07-13 03:37:00,
2013-07-12 23:42:00,63.2,59.9,29.94,East,79,1.0,2.0,89,0.00,,---,0.00,VWS V14.01,2013-07-13 03:42:00,
2013-07-12 23:48:00,63.1,59.8,29.94,East,79,3.0,3.0,89,0.00,,---,0.00,VWS V14.01,2013-07-13 03:48:00,
2013-07-12 23:53:00,62.9,59.9,29.94,East,79,0.0,0.0,90,0.00,,---,0.00,VWS V14.01,2013-07-13 03:53:00,
2013-07-12 23:58:00,62.6,59.6,29.94,East,80,0.0,0.0,90,0.00,,---,0.00,VWS V14.01,2013-07-13 03:58:00,